Location: Brompton
(51.4000°N, 0.5333°E)
Time: 07:56:14
(UTC+00:00)

Cosmos 1470 Rocket - Pass Details

Date: 11 May 2021
Orbit: 604 x 633 km, 82.5° (Epoch: 13 June)

Event Time Altitude Azimuth Distance (km) Brightness Sun altitude
Rises 20:43:57 0° 350° (N) 2,939 8.0 -9.0°
Reaches altitude 10° 20:46:12 10° 353° (N) 2,028 7.1 -9.3°
Maximum altitude 20:50:42 73° 78° (ENE) 668 3.6 -9.8°
Enters shadow 20:55:02 11° 164° (SSE) 1,957 5.6 -10.2°
